Farmville, Virginia, United States (23901)
Lat: 37.30N, Lon: 78.39W
Wx Zone: VAZ060
Local Info
Past Weather Observations for Today

NOTE: This archive is for the closest National Weather Service station to Farmville. Information may differ from the station used for current weather conditions.

Click here for Long-term Archive

Time Weather Temperature Dewpoint Humidity Pressure Winds Precip Visibility
19:55
Clear
63°F / 17°C 59°F / 15°C 88% 29.77 in
(1008 mb)
SW 5.8 mph
(SW 9 kph)
- 10SM
19:35
Clear
63°F / 17°C 57°F / 14°C 83% 29.77 in
(1008 mb)
SSE 4.6 mph
(SSE 7 kph)
- 10SM
19:15
Clear
Thunder Storms
63°F / 17°C 55°F / 13°C 77% 29.77 in
(1008 mb)
S 3.5 mph
(S 6 kph)
- 10SM
18:55
Clear
64°F / 18°C 55°F / 13°C 73% 29.77 in
(1008 mb)
SSE 5.8 mph
(SSE 9 kph)
- 10SM
18:35
Clear
64°F / 18°C 55°F / 13°C 73% 29.74 in
(1007 mb)
S 6.9 mph
(S 11 kph)
- 10SM
18:15
Clear
66°F / 19°C 55°F / 13°C 68% 29.74 in
(1007 mb)
SSE 5.8 mph
(SSE 9 kph)
- 10SM
17:55
Clear
66°F / 19°C 55°F / 13°C 68% 29.74 in
(1007 mb)
SSE 5.8 mph
(SSE 9 kph)
- 10SM
17:35
Clear
68°F / 20°C 55°F / 13°C 64% 29.71 in
(1006 mb)
SW 5.8 mph
(SW 9 kph)
- 10SM
17:15
Clear
70°F / 21°C 54°F / 12°C 57% 29.71 in
(1006 mb)
SSE 9.2 mph
(SSE 15 kph)
- 10SM
16:55
Clear
72°F / 22°C 54°F / 12°C 53% 29.71 in
(1006 mb)
SSE 9.2 mph
(SSE 15 kph)
- 10SM
16:35
Clear
73°F / 23°C 54°F / 12°C 50% 29.71 in
(1006 mb)
SSE 12.7 mph
(SSE 20 kph)
- 10SM
16:15
Clear
73°F / 23°C 54°F / 12°C 50% 29.68 in
(1005 mb)
SSE 10.4 mph
(SSE 17 kph)
- 10SM
15:55
Clear
75°F / 24°C 52°F / 11°C 44% 29.68 in
(1005 mb)
SW 11.5 mph
(SW 19 kph)
- 10SM
15:35
Clear
75°F / 24°C 52°F / 11°C 44% 29.68 in
(1005 mb)
SW 13.8 mph
(SW 22 kph)
- 10SM
15:15
Clear
75°F / 24°C 52°F / 11°C 44% 29.68 in
(1005 mb)
SW 15 mph
(SW 24 kph)
- 10SM
14:55
Clear
75°F / 24°C 52°F / 11°C 44% 29.68 in
(1005 mb)
SW 17.3 mph
(SW 28 kph)
- 10SM
14:35
Fair
75°F / 24°C 52°F / 11°C 44% 29.65 in
(1004 mb)
SSE 18.4 mph
(SSE 30 kph)
-
14:15
Partly Cloudy
75°F / 24°C 54°F / 12°C 47% 29.65 in
(1004 mb)
SW 15 mph
(SW 24 kph)
- 10SM
13:55
Partly Cloudy
75°F / 24°C 54°F / 12°C 47% 29.65 in
(1004 mb)
SW 19.6 mph
(SW 32 kph)
- 10SM
13:35
Partly Cloudy
75°F / 24°C 55°F / 13°C 50% 29.65 in
(1004 mb)
SSE 16.1 mph
(SSE 26 kph)
- 10SM
13:15
Partly Cloudy
75°F / 24°C 55°F / 13°C 50% 29.65 in
(1004 mb)
SSE 19.6 mph
(SSE 32 kph)
- 10SM
12:55
Partly Cloudy
75°F / 24°C 55°F / 13°C 50% 29.68 in
(1005 mb)
S 15 mph
(S 24 kph)
- 10SM
12:35
Partly Cloudy
73°F / 23°C 55°F / 13°C 53% 29.68 in
(1005 mb)
SW 13.8 mph
(SW 22 kph)
- 10SM
12:15
Partly Cloudy
73°F / 23°C 55°F / 13°C 53% 29.68 in
(1005 mb)
SW 17.3 mph
(SW 28 kph)
- 10SM
11:55
Partly Cloudy
73°F / 23°C 55°F / 13°C 53% 29.68 in
(1005 mb)
SW 13.8 mph
(SW 22 kph)
- 10SM
11:35
Mostly Cloudy
73°F / 23°C 55°F / 13°C 53% 29.71 in
(1006 mb)
SSE 12.7 mph
(SSE 20 kph)
- 10SM
11:15
Partly Cloudy
72°F / 22°C 55°F / 13°C 57% 29.71 in
(1006 mb)
SW 19.6 mph
(SW 32 kph)
- 10SM
10:55
Partly Cloudy
70°F / 21°C 55°F / 13°C 60% 29.71 in
(1006 mb)
SW 24.2 mph
(SW 39 kph)
- 10SM
10:35
Mostly Cloudy
70°F / 21°C 57°F / 14°C 64% 29.74 in
(1007 mb)
SW 13.8 mph
(SW 22 kph)
- 10SM
10:15
Mostly Cloudy
68°F / 20°C 57°F / 14°C 69% 29.74 in
(1007 mb)
SSE 19.6 mph
(SSE 32 kph)
- 10SM
09:55
Overcast
66°F / 19°C 57°F / 14°C 73% 29.74 in
(1007 mb)
SW 12.7 mph
(SW 20 kph)
- 10SM
09:35
Mostly Cloudy
66°F / 19°C 57°F / 14°C 73% 29.74 in
(1007 mb)
SSE 15 mph
(SSE 24 kph)
- 10SM
09:15
Mostly Cloudy
68°F / 20°C 57°F / 14°C 69% 29.74 in
(1007 mb)
SSE 17.3 mph
(SSE 28 kph)
- 10SM
08:55
Overcast
66°F / 19°C 59°F / 15°C 78% 29.74 in
(1007 mb)
SW 15 mph
(SW 24 kph)
- 10SM
08:35
Overcast
64°F / 18°C 63°F / 17°C 94% 29.71 in
(1006 mb)
SSE 13.8 mph
(SSE 22 kph)
- 10SM
08:15
Overcast
64°F / 18°C 63°F / 17°C 94% 29.71 in
(1006 mb)
SW 11.5 mph
(SW 19 kph)
- 10SM
07:55
Mostly Cloudy
63°F / 17°C 63°F / 17°C 100% 29.71 in
(1006 mb)
SSE 11.5 mph
(SSE 19 kph)
- 10SM
07:35
Clear
63°F / 17°C 63°F / 17°C 100% 29.71 in
(1006 mb)
SW 9.2 mph
(SW 15 kph)
- 10SM
07:15
Partly Cloudy
63°F / 17°C 61°F / 16°C 94% 29.71 in
(1006 mb)
SW 6.9 mph
(SW 11 kph)
- 10SM
06:55
Mostly Cloudy
63°F / 17°C 61°F / 16°C 94% 29.71 in
(1006 mb)
SW 6.9 mph
(SW 11 kph)
- 10SM
06:35
Clear
64°F / 18°C 61°F / 16°C 88% 29.68 in
(1005 mb)
SW 11.5 mph
(SW 19 kph)
- 10SM
06:15
Clear
64°F / 18°C 63°F / 17°C 94% 29.68 in
(1005 mb)
SSE 12.7 mph
(SSE 20 kph)
- 10SM
05:55
Partly Cloudy
64°F / 18°C 63°F / 17°C 94% 29.68 in
(1005 mb)
SSE 11.5 mph
(SSE 19 kph)
- 10SM
05:35
Clear
64°F / 18°C 64°F / 18°C 100% 29.68 in
(1005 mb)
SW 10.4 mph
(SW 17 kph)
- 10SM
05:15
Clear
64°F / 18°C 64°F / 18°C 100% 29.68 in
(1005 mb)
SSE 12.7 mph
(SSE 20 kph)
- 10SM
04:55
Partly Cloudy
64°F / 18°C 64°F / 18°C 100% 29.68 in
(1005 mb)
SSE 15 mph
(SSE 24 kph)
- 10SM
04:35
Mostly Cloudy
66°F / 19°C 64°F / 18°C 94% 29.68 in
(1005 mb)
SSE 13.8 mph
(SSE 22 kph)
- 10SM
04:15
Overcast
66°F / 19°C 66°F / 19°C 100% 29.68 in
(1005 mb)
SW 12.7 mph
(SW 20 kph)
- 10SM
03:55
Overcast
66°F / 19°C 66°F / 19°C 100% 29.68 in
(1005 mb)
SSE 11.5 mph
(SSE 19 kph)
- 10SM
03:35
Overcast
66°F / 19°C 66°F / 19°C 100% 29.68 in
(1005 mb)
S 16.1 mph
(S 26 kph)
- 10SM
03:15
Overcast
66°F / 19°C 66°F / 19°C 100% 29.68 in
(1005 mb)
S 18.4 mph
(S 30 kph)
- 10SM
02:55
Mostly Cloudy
64°F / 18°C 64°F / 18°C 100% 29.68 in
(1005 mb)
S 13.8 mph
(S 22 kph)
- 10SM
02:35
Partly Cloudy
66°F / 19°C 66°F / 19°C 100% 29.68 in
(1005 mb)
S 12.7 mph
(S 20 kph)
- 10SM
02:15
Mostly Cloudy
66°F / 19°C 66°F / 19°C 100% 29.68 in
(1005 mb)
S 11.5 mph
(S 19 kph)
- 10SM
01:55
Overcast
66°F / 19°C 66°F / 19°C 100% 29.65 in
(1004 mb)
S 11.5 mph
(S 19 kph)
- 10SM
01:35
Overcast
66°F / 19°C 66°F / 19°C 100% 29.65 in
(1004 mb)
S 12.7 mph
(S 20 kph)
- 10SM
01:15
Overcast
66°F / 19°C 66°F / 19°C 100% 29.68 in
(1005 mb)
S 13.8 mph
(S 22 kph)
- 10SM
00:55
Overcast
64°F / 18°C 64°F / 18°C 100% 29.65 in
(1004 mb)
S 18.4 mph
(S 30 kph)
- 10SM
00:35
Overcast
64°F / 18°C 64°F / 18°C 100% 29.65 in
(1004 mb)
S 15 mph
(S 24 kph)
- 10SM
00:15
Overcast
64°F / 18°C 64°F / 18°C 100% 29.68 in
(1005 mb)
S 11.5 mph
(S 19 kph)
- 10SM
Time Weather Temperature Dewpoint Humidity Pressure Winds Precip Visibility


Weather for websites

WeatherForYou.com, LLC is not responsible for any damages or problems caused by this service. Current weather conditions are obtained from the closest station including government and personal stations which may have varying degrees of accuracy. Weather forecasts are derived from the NOAA NDFD. Like all things, this site belongs to Jesus Christ... He just trusts me to maintain it. If you have any questions or comments email webmaster@weatherforyou.com

Copyright © 2014, WeatherForYou.com LLC. All rights reserved.